DW9354 Weather Reports


time (UTC)temp
F
wind
direction
speed
knots
gust
knots
rain 1hr
in
rain 24hr
in
rain mn
in
humidity
%
barometer
mb
20260505101656 59 34 0.0 1.7 0.00 0.00 0.00 73 1012.7
20260505100152 59 222 0.0 1.7 0.00 0.00 0.00 72 1012.7
20260505094647 60 338 0.0 1.7 0.00 0.00 0.00 71 1012.8
20260505093143 60 292 0.0 1.7 0.00 0.00 0.00 70 1012.7
20260505091637 60 324 1.7 5.2 0.00 0.00 0.00 69 1012.7
20260505090133 61 286 0.0 4.3 0.00 0.00 0.00 69 1012.6
20260505084631 61 322 0.0 2.6 0.00 0.00 0.00 68 1012.5
20260505081622 61 244 0.0 3.5 0.00 0.00 0.00 67 1012.5
20260505080117 61 206 0.0 5.2 0.00 0.00 0.00 66 1012.5
20260505074614 60 219 0.9 5.2 0.00 0.00 0.00 66 1012.6
20260505073113 61 163 0.0 1.7 0.00 0.00 0.00 64 1012.4
20260505071605 61 240 0.9 4.3 0.00 0.00 0.00 63 1012.2
20260505070104 61 40 0.9 4.3 0.00 0.00 0.00 63 1012.2
20260505064558 61 68 0.0 2.6 0.00 0.00 0.00 63 1012.1
20260505063054 61 311 0.0 4.3 0.00 0.00 0.00 63 1012.1
20260505061554 61 306 0.0 3.5 0.00 0.00 0.00 63 1011.9
20260505060046 60 1 0.9 6.1 0.00 0.00 0.00 64 1011.9
20260505054600 60 237 0.0 8.7 0.00 0.00 0.00 65 1011.9
20260505053041 59 290 0.0 2.6 0.00 0.00 0.00 66 1011.7
20260505051534 59 347 0.0 0.9 0.00 0.00 0.00 67 1011.7
20260505041516 60 35 0.0 0.0 0.00 0.00 0.00 67 1011.5
20260505040011 60 35 0.0 0.0 0.00 0.00 0.00 67 1011.4
20260505034510 60 35 0.0 0.0 0.00 0.00 0.00 67 1011.4
20260505033003 61 35 0.0 0.0 0.00 0.00 0.00 65 1011.4